Home > Weather > Santa Clarita > Past weeks

Flag for USA Past Weather in Santa Clarita, California, USA — Yesterday and Last 2 Weeks

Now
84 °F

Sunny.


Feels Like: 84 °F
Forecast: 63 / 96 °F
Wind: 13 mph from Southeast

Location: Van Nuys Airport

Current Time: Jun 24, 2016 at 3:21:14 PM

Latest Report: Jun 24, 2016 at 2:51 PM


Visibility: 10 mi

Pressure: 29.85 "Hg

Humidity: 46%

Dew Point: 61 °F

Location of Santa ClaritaLocation

Past Weather in Santa Clarita — Graph

°F

Santa Clarita Temperature Yesterday

Maximum temperature yesterday: 88 °F (at 1:51 PM)
Minimum temperature yesterday: 62 °F (at 4:51 AM)
Average temperature yesterday: 74 °F

High & Low Weather Summary for the Past Weeks

 TemperatureHumidityPressure
High113 °F (Jun 20, 2:54 PM)100% (Jun 24, 6:51 AM)30.10 "Hg (Jun 24, 6:51 AM)
Low56 °F (Jun 16, 5:51 AM)1% (Jun 19, 12:51 PM)29.78 "Hg (Jun 20, 4:51 PM)
Average73 °F54%29.93 "Hg
* Reported Jun 9 1:51 PM — Jun 24 1:51 PM, Santa Clarita, Weather by CustomWeather, © 2016

Note: Actual official high and low records may vary slightly from our data, if they occured in-between our weather recording intervals... More about our weather records

Advertising

Santa Clarita Weather History for the Previous 24 Hours

Scroll right to see more
 ConditionsComfort  
Time TempWeatherWind HumidityBarometerVisibility
1:51 PM
Fri, Jun 24
83 °FSunny.9 mph46%29.87 "Hg10 mi
12:51 PM81 °FSunny.10 mph51%29.89 "Hg10 mi
11:51 AM79 °FSunny.9 mph54%29.90 "Hg9 mi
10:51 AM76 °FSunny.9 mph60%29.91 "Hg5 mi
9:51 AM72 °FSunny.6 mph71%29.92 "Hg5 mi
8:51 AM69 °FHaze.6 mph76%29.93 "Hg4 mi
7:51 AM64 °FFog.5 mph94%29.92 "Hg1 mi
6:51 AM62 °FFog.3 mph100%29.92 "Hg1 mi
6:02 AM62 °FFog.5 mph96%29.94 "Hg2 mi
4:51 AM64 °FFog.3 mph90%29.90 "Hg6 mi
3:51 AM65 °FClear.3 mph87%29.90 "Hg8 mi
2:51 AM66 °FClear.5 mph84%29.90 "Hg9 mi
1:51 AM67 °FClear.3 mph81%29.91 "Hg10 mi
12:51 AM68 °FClear.3 mph78%29.91 "Hg10 mi
11:51 PM
Thu, Jun 23
69 °FClear.6 mph76%29.92 "Hg10 mi
10:51 PM71 °FClear.7 mph68%29.91 "Hg10 mi
9:51 PM73 °FClear.7 mph64%29.90 "Hg10 mi
8:51 PM75 °FSunny.6 mph58%29.88 "Hg10 mi
7:51 PM78 °FSunny.8 mph52%29.87 "Hg10 mi
6:51 PM81 °FSunny.9 mph47%29.87 "Hg10 mi
5:51 PM83 °FSunny.12 mph44%29.86 "Hg10 mi
4:51 PM84 °FSunny.12 mph43%29.87 "Hg10 mi
3:51 PM87 °FSunny.10 mph40%29.88 "Hg10 mi
Weather by CustomWeather, © 2016

See weather overviewHow to use our weather pages